Hourly Data Report for October 18, 2014

All times are specified in Local Standard Time (LST). Add 1 hour to adjust for Daylight Saving Time where and when it is observed.

FREDERICTON
NEW BRUNSWICK

45°52'08.000" N
66°32'14.000" W
20.70 m
8101505
71700
YFC

Download Data

Hourly Data (October 2014)
Hourly Data Report for October 18, 2014
Temp Definition
°C
Dew Point Temp Definition
°C
Rel Hum Definition
%
Wind Dir Definition
10's deg

Wind Spd Definition
km/h
Visibility Definition
km
Stn Press Definition
kPa
Hmdx Definition


Wind Chill Definition


Weather Definition


TIME
00:00 Legend Double Dagger 10.1 10.0 99 18 8 1.0 100.13     Fog
01:00 Legend Double Dagger 11.1 11.0 100 18 13 6.4 100.13     Fog
02:00 Legend Double Dagger 11.3 11.0 98 19 13 6.4 100.12     Fog
03:00 Legend Double Dagger 10.5 10.4 99 20 9 3.6 100.09     Fog
04:00 Legend Double Dagger 9.2 9.1 99   0 0.4 100.08     Fog
05:00 Legend Double Dagger 8.9 8.9 100   0 0.2 100.10     Fog
06:00 Legend Double Dagger 7.3 7.3 100   0 0.2 100.10     Fog
07:00 Legend Double Dagger 9.1 9.1 100 8 5 0.2 100.10     Fog
08:00 Legend Double Dagger 10.2 10.2 100 8 5 4.8 100.15     Fog
09:00 Legend Double Dagger 11.7 11.7 100 LegendMM 4 9.7 100.11     Fog
10:00 Legend Double Dagger 14.4 14.1 98 17 15 16.1 100.06     LegendNANA
11:00 Legend Double Dagger 15.9 13.8 87 19 22 16.1 100.02     LegendNANA
12:00 Legend Double Dagger 17.7 13.5 76 18 17 16.1 99.95     LegendNANA
13:00 Legend Double Dagger 18.0 13.3 74 20 17 16.1 99.89     LegendNANA
14:00 Legend Double Dagger 18.1 13.0 72 17 18 16.1 99.83     LegendNANA
15:00 Legend Double Dagger 19.4 13.1 67 17 21 16.1 99.73     LegendNANA
16:00 Legend Double Dagger 18.2 13.1 72 16 15 16.1 99.72     LegendNANA
17:00 Legend Double Dagger 17.0 12.8 76 16 17 16.1 99.67     LegendNANA
18:00 Legend Double Dagger 15.1 12.6 85 16 11 16.1 99.65     LegendNANA
19:00 Legend Double Dagger 13.8 12.4 91 16 11 16.1 99.66     LegendNANA
20:00 Legend Double Dagger 13.3 12.4 94 17 13 16.1 99.63     LegendNANA
21:00 Legend Double Dagger 12.7 12.0 96 18 4 16.1 99.64     LegendNANA
22:00 Legend Double Dagger 12.2 11.9 98 7 4 9.7 99.59     Fog
23:00 Legend Double Dagger 13.0 12.4 96 12 9 14.5 99.54     LegendNANA

Notes on Data Quality.

Legend

  • E = Estimated
  • M = Missing
  • NA = Not Available
  • ‡ = Partner data that is not subject to review by the National Climate Archives
Date modified: